Terug naar catalogus

SCOUT A-1 DEB

ActiefPO
NORAD 18496·DEBRIS·🇺🇸 United States

Gelanceerd Oct 30, 1973 vanaf Vandenberg Space Force Base

Loading…

Volgende Passages (komende 24 uur)

TLE

VersSource: Space-Track

Epoch: Sep 14, 2026, 08:40 UTC

1 18496U 73081D   26257.36152163  .00000201  00000-0  16986-3 0  9992
2 18496  89.9040 112.1819 0132824 288.3567 248.5296 13.81269813939641

Volg SCOUT A-1 DEB in realtime met AllMySat

Download on the App Store